FW9253 Weather Reports


Display with metric or nautical units.
time (UTC)temp
F
wind
direction
speed
MPH
gust
MPH
rain 1hr
in
rain 24hr
in
rain mn
in
humidity
%
barometer
mb
20260507130556 73 281 0.0 4.0 0.00 0.00 0.00 6 1011.6
20260507125655 73 281 0.0 4.0 0.00 0.00 0.00 16 1011.6
20260507124755 72 0 0.0 0.0 0.00 0.00 0.00 21 1011.6
20260507123855 73 0 0.0 0.0 0.00 0.00 0.00 16 1011.6
20260507122955 74 0 0.0 0.0 0.00 0.00 0.00 11 1011.6
20260507122055 75 79 0.0 7.0 0.00 0.00 0.00 2 1011.6
20260507121155 76 248 0.0 1.0 0.00 0.00 0.00 8 1010.6
20260507120255 78 54 0.0 5.0 0.00 0.00 0.00 2 1010.6
20260507115355 80 23 0.0 7.0 0.00 0.00 0.00 2 1011.6
20260507114455 86 10 1.0 8.0 0.00 0.00 0.00 2 1011.6
20260507113555 92 326 1.0 3.0 0.00 0.00 0.00 2 1011.6
20260507112655 91 281 0.0 6.0 0.00 0.00 0.00 2 1011.6
20260507110855 89 255 0.0 4.0 0.00 0.00 0.00 2 1011.6
20260507105955 88 232 0.0 3.0 0.00 0.00 0.00 2 1011.6
20260507105055 86 0 0.0 0.0 0.00 0.00 0.00 2 1011.6
20260507102355 91 31 0.0 3.0 0.00 0.00 0.00 2 1011.6
20260507101455 94 288 0.0 2.0 0.00 0.00 0.00 2 1011.6
20260507094755 92 353 0.0 4.0 0.00 0.00 0.00 2 1011.6
20260507093855 92 285 0.0 6.0 0.00 0.00 0.00 2 1010.6
20260507092955 92 20 0.0 4.0 0.00 0.00 0.00 2 1010.6
20260507092055 92 307 1.0 4.0 0.00 0.00 0.00 2 1011.6
20260507091155 92 68 0.0 1.0 0.00 0.00 0.00 2 1011.6
20260507090255 90 275 0.0 6.0 0.00 0.00 0.00 2 1011.6
20260507085354 92 0 0.0 0.0 0.00 0.00 0.00 2 1011.6
20260507084455 92 292 0.0 3.0 0.00 0.00 0.00 2 1011.6
20260507083554 92 309 0.0 2.0 0.00 0.00 0.00 2 1012.7
20260507081754 91 292 0.0 1.0 0.00 0.00 0.00 2 1012.7
20260507080854 90 41 0.0 3.0 0.00 0.00 0.00 2 1012.7
20260507075954 90 68 0.0 6.0 0.00 0.00 0.00 2 1012.7
20260507075054 89 39 0.0 6.0 0.00 0.00 0.00 2 1012.7
20260507074154 89 339 0.0 3.0 0.00 0.00 0.00 2 1012.7
20260507073254 89 292 0.0 1.0 0.00 0.00 0.00 2 1012.7
20260507071454 88 292 0.0 2.0 0.00 0.00 0.00 2 1012.7
20260507070554 88 270 0.0 4.0 0.00 0.00 0.00 2 1012.7
20260507064754 88 0 0.0 0.0 0.00 0.00 0.00 2 1012.7
20260507063857 87 292 0.0 4.0 0.00 0.00 0.00 2 1011.6
20260507062954 87 0 0.0 0.0 0.00 0.00 0.00 2 1011.6
20260507062054 85 0 0.0 0.0 0.00 0.00 0.00 2 1011.6
20260507061154 85 270 0.0 4.0 0.00 0.00 0.00 2 1011.6
20260507060254 84 0 0.0 0.0 0.00 0.00 0.00 2 1011.6
20260507054454 83 248 0.0 1.0 0.00 0.00 0.00 9 1011.6
20260507052654 82 0 0.0 0.0 0.00 0.00 0.00 20 1012.7
20260507051754 81 0 0.0 0.0 0.00 0.00 0.00 22 1012.7
20260507050854 80 0 0.0 0.0 0.00 0.00 0.00 23 1011.6
20260507045954 79 0 0.0 0.0 0.00 0.00 0.00 31 1011.6
20260507045054 77 0 0.0 0.0 0.00 0.00 0.00 33 1010.6
20260507044153 75 0 0.0 0.0 0.00 0.00 0.00 39 1010.6
20260507043254 72 0 0.0 0.0 0.00 0.00 0.00 45 1010.6
20260507042354 69 0 0.0 0.0 0.00 0.00 0.00 49 1010.6
20260507040553 67 0 0.0 0.0 0.00 0.00 0.00 47 1009.6
20260507035654 67 0 0.0 0.0 0.00 0.00 0.00 49 1009.6
20260507034753 65 0 0.0 0.0 0.00 0.00 0.00 50 1009.6
20260507033853 65 0 0.0 0.0 0.00 0.00 0.00 51 1008.6
20260507032955 64 0 0.0 0.0 0.00 0.00 0.00 56 1008.6
20260507032053 62 0 0.0 0.0 0.00 0.00 0.00 55 1009.6
20260507025353 59 0 0.0 0.0 0.00 0.00 0.00 63 1008.6
20260507024453 58 0 0.0 0.0 0.00 0.00 0.00 64 1008.6
20260507022653 56 0 0.0 0.0 0.00 0.00 0.00 67 1008.6
20260507021754 55 0 0.0 0.0 0.00 0.00 0.00 67 1008.6
20260507020853 54 0 0.0 0.0 0.00 0.00 0.00 67 1008.6
20260507015953 54 0 0.0 0.0 0.00 0.00 0.00 67 1008.6
20260507015053 54 0 0.0 0.0 0.00 0.00 0.00 68 1008.6
20260507014153 54 0 0.0 0.0 0.00 0.00 0.00 67 1008.6
20260507013254 54 0 0.0 0.0 0.00 0.00 0.00 67 1008.6
20260507012353 54 0 0.0 0.0 0.00 0.00 0.00 67 1008.6
20260507011453 54 0 0.0 0.0 0.00 0.00 0.00 66 1008.6
20260507010553 54 0 0.0 0.0 0.00 0.00 0.00 66 1008.6
20260507004753 55 0 0.0 0.0 0.00 0.00 0.00 66 1007.6
20260507002952 55 0 0.0 0.0 0.00 0.00 0.00 66 1007.6
20260507002052 55 0 0.0 0.0 0.00 0.00 0.00 66 1007.6
20260507001152 54 0 0.0 0.0 0.00 0.00 0.00 67 1007.6
20260507000254 54 0 0.0 0.0 0.00 0.00 0.00 66 1007.6
20260506235352 54 0 0.0 0.0 0.00 0.00 0.00 67 1007.6
20260506234453 54 0 0.0 0.0 0.00 0.00 0.00 66 1007.6
20260506233552 54 0 0.0 0.0 0.00 0.00 0.00 66 1007.6
20260506232652 54 0 0.0 0.0 0.00 0.00 0.00 66 1007.6
20260506231752 54 0 0.0 0.0 0.00 0.00 0.00 67 1007.6
20260506230852 54 0 0.0 0.0 0.00 0.00 0.00 67 1007.6
20260506225952 55 0 0.0 0.0 0.00 0.00 0.00 66 1007.6
20260506225052 55 0 0.0 0.0 0.00 0.00 0.00 67 1007.6
20260506224152 55 0 0.0 0.0 0.00 0.00 0.00 67 1007.6
20260506223252 55 0 0.0 0.0 0.00 0.00 0.00 68 1007.6
20260506222352 55 0 0.0 0.0 0.00 0.00 0.00 68 1007.6
20260506221452 56 0 0.0 0.0 0.00 0.00 0.00 68 1007.6
20260506220552 56 0 0.0 0.0 0.00 0.00 0.00 69 1007.6
20260506213852 56 0 0.0 0.0 0.00 0.00 0.00 70 1008.6
20260506211152 57 0 0.0 0.0 0.00 0.00 0.00 70 1007.6
20260506204502 58 0 0.0 0.0 0.00 0.00 0.00 71 1008.6
20260506203602 58 0 0.0 0.0 0.00 0.00 0.00 71 1008.6
20260506202702 58 0 0.0 0.0 0.00 0.00 0.00 71 1008.6
20260506201802 58 0 0.0 0.0 0.00 0.00 0.00 73 1008.6
20260506200002 59 0 0.0 0.0 0.00 0.00 0.00 73 1008.6
20260506194202 60 0 0.0 0.0 0.00 0.00 0.00 71 1009.6
20260506193302 60 90 0.0 1.0 0.00 0.00 0.00 68 1009.6
20260506192401 61 225 0.0 2.0 0.00 0.00 0.00 66 1008.6
20260506191501 61 158 0.0 1.0 0.00 0.00 0.00 61 1008.6
20260506185702 63 11 4.0 6.0 0.00 0.00 0.00 43 1008.6
20260506184801 64 181 0.0 1.0 0.00 0.00 0.00 36 1008.6
20260506183901 63 0 0.0 0.0 0.00 0.00 0.00 37 1008.6
20260506183001 63 139 0.0 2.0 0.00 0.00 0.00 38 1008.6
20260506182101 62 158 0.0 3.0 0.00 0.00 0.00 39 1008.6
20260506180302 62 158 0.0 1.0 0.00 0.00 0.00 39 1009.6
20260506175401 62 0 0.0 0.0 0.00 0.00 0.00 38 1009.6
20260506174502 62 0 0.0 0.0 0.00 0.00 0.00 39 1009.6
20260506173601 62 182 0.0 2.0 0.00 0.00 0.00 38 1009.6
20260506172701 62 0 0.0 0.0 0.00 0.00 0.00 38 1009.6
20260506171801 63 0 0.0 0.0 0.00 0.00 0.00 37 1009.6
20260506170901 63 0 0.0 0.0 0.00 0.00 0.00 36 1009.6
20260506165101 64 0 0.0 0.0 0.00 0.00 0.00 35 1008.6
20260506164201 65 0 0.0 0.0 0.00 0.00 0.00 34 1009.6
20260506162401 67 0 0.0 0.0 0.00 0.00 0.00 29 1009.6
20260506161501 68 0 0.0 0.0 0.00 0.00 0.00 27 1009.6
20260506160606 69 0 0.0 0.0 0.00 0.00 0.00 22 1009.6
20260506155700 71 0 0.0 0.0 0.00 0.00 0.00 7 1010.6
20260506154801 73 0 0.0 0.0 0.00 0.00 0.00 3 1010.6
20260506153900 75 0 0.0 0.0 0.00 0.00 0.00 2 1009.6
20260506153004 77 0 0.0 0.0 0.00 0.00 0.00 2 1009.6
20260506152100 79 0 0.0 0.0 0.00 0.00 0.00 2 1009.6
20260506151201 80 0 0.0 0.0 0.00 0.00 0.00 2 1009.6
20260506150304 81 0 0.0 0.0 0.00 0.00 0.00 2 1009.6
20260506145407 81 0 0.0 0.0 0.00 0.00 0.00 2 1009.6
20260506144509 81 0 0.0 0.0 0.00 0.00 0.00 2 1009.6
20260506143606 81 0 0.0 0.0 0.00 0.00 0.00 2 1009.6
20260506142707 81 0 0.0 0.0 0.00 0.00 0.00 2 1009.6
20260506140900 82 168 0.0 2.0 0.00 0.00 0.00 2 1009.6
20260506140000 82 184 0.0 2.0 0.00 0.00 0.00 2 1009.6
20260506135100 82 0 0.0 0.0 0.00 0.00 0.00 2 1009.6
20260506134206 83 0 0.0 0.0 0.00 0.00 0.00 2 1009.6
20260506133305 83 0 0.0 0.0 0.00 0.00 0.00 2 1009.6
20260506132406 84 0 0.0 0.0 0.00 0.00 0.00 2 1009.6
20260506131507 83 253 0.0 3.0 0.00 0.00 0.00 2 1009.6